Content
SEND FEEDBACK

Daily
Averages
Monthly
Summary
United States of America

HAMILTON, ILLINOIS


Home > North America > United States > Illinois
Elevation: 158 meters     Latitude: 40 24N     Longitude: 091 22W

WEATHER
 
SELECT A DAY
Number of Records: 424,795;   Date Range: 2/11/95 - 12/18/14
 
SHARE

PRINT THIS DATA

[ ← Previous Day ]
WEATHER ALMANAC - 23 JANUARY, 2013
[ Next Day → ]
[ °F ]   °C
Weather ElementAverageHighLow
Temperature-4.9 °C4 °C (2:15 pm)-11 °C (5:55 am)
Dewpoint-13.4 °C-9 °C (3:55 pm)-18 °C (10:55 pm)
Humidity53.3 %79 % (7:15 am)33 % (2:15 pm)
Barometer1024.7 hPa1030.8 hPa (11:55 pm)1020.3 hPa (2:15 pm)
Wind Speed10.8 km/h29.6 km/h (8:35 pm)
Wind Gust42.6 km/h (8:35 pm)
Weather ElementAverage
Visibility16.1 km
Wind DirectionS (177.6 °)

Weather ElementTotal
Precipitation---
Heating Degree Days21.8 (Base 18.3)
Averaged from 70 records on 23 January, 2013
WEATHER CONDITIONS BREAKOUT
WIND DIRECTION BREAKOUT
WEATHER BY HOUR - 23 JANUARY, 2013
[ °F ]   °C
Local TimeTemperatureDewpointHumidityBarometerVisibilityWind DirectionWind SpeedGust SpeedPrecipitationEventsConditions
12:35 AM-8 °C-17 °C49 %1027.1 hPa16.1 kmCalmOvercast
12:55 AM-8 °C-17 °C49 %1027.1 hPa16.1 kmCalmOvercast
1:15 AM-8 °C-17 °C49 %1026.8 hPa16.1 kmCalmOvercast
1:35 AM-8 °C-17 °C49 %1026.8 hPa16.1 kmCalmOvercast
1:55 AM-8 °C-17 °C49 %1026.8 hPa16.1 kmCalmOvercast
2:15 AM-8 °C-17 °C49 %1026.8 hPa16.1 kmCalmOvercast
2:35 AM-8 °C-16 °C53 %1026.8 hPa16.1 kmCalmOvercast
2:55 AM-8 °C-16 °C53 %1026.4 hPa16.1 kmCalmOvercast
3:15 AM-8 °C-16 °C53 %1026.1 hPa16.1 kmCalmOvercast
3:35 AM-9 °C-16 °C58 %1026.1 hPa16.1 kmCalmScattered Clouds
3:55 AM-9 °C-16 °C58 %1026.1 hPa16.1 kmCalmClear
4:15 AM-9 °C-16 °C58 %1025.7 hPa16.1 kmCalmClear
4:35 AM-9 °C-16 °C58 %1025.4 hPa16.1 kmCalmClear
4:55 AM-10 °C-16 °C62 %1025.4 hPa16.1 kmCalmClear
5:15 AM-10 °C-16 °C62 %1025.1 hPa16.1 kmCalmClear
5:35 AM-10 °C-16 °C62 %1025.1 hPa16.1 kmCalmClear
5:55 AM-11 °C-16 °C67 %1025.1 hPa16.1 kmCalmClear
6:15 AM-11 °C-16 °C67 %1025.1 hPa16.1 kmCalmClear
6:35 AM-10 °C-15 °C67 %1024.7 hPa16.1 kmCalmClear
6:55 AM-11 °C-15 °C73 %1024.7 hPa16.1 kmCalmClear
7:15 AM-11 °C-14 °C79 %1024.4 hPa16.1 kmCalmClear
7:35 AM-11 °C-14 °C79 %1024 hPa16.1 kmCalmClear
7:55 AM-10 °C-14 °C73 %1024.4 hPa16.1 kmCalmClear
8:15 AM-9 °C-14 °C68 %1024 hPa16.1 kmCalmClear
8:35 AM-8 °C-13 °C68 %1024 hPa16.1 kmCalmClear
8:55 AM-7 °C-13 °C63 %1023.7 hPa16.1 kmSouth (190°)5.6 km/hClear
9:15 AM-7 °C-13 °C63 %1024 hPa16.1 kmCalmClear
9:35 AM-6 °C-13 °C58 %1023.7 hPa16.1 kmSouth (190°)7.4 km/hClear
9:55 AM-6 °C-13 °C58 %1023.7 hPa16.1 kmSouth (190°)5.6 km/hClear
10:15 AM-5 °C-13 °C54 %1023.7 hPa16.1 kmCalmClear
10:35 AM-4 °C-12 °C54 %1023.7 hPa16.1 kmCalmClear
10:55 AM-4 °C-12 °C54 %1023.4 hPa16.1 kmSW (230°)16.7 km/hClear
11:15 AM-3 °C-12 °C51 %1023.4 hPa16.1 kmSSW (210°)5.6 km/hClear
11:35 AM-2 °C-12 °C47 %1023 hPa16.1 kmWSW (250°)7.4 km/hClear
11:55 AM-1 °C-12 °C44 %1022.4 hPa16.1 kmWSW (240°)13 km/hClear
12:15 PM0 °C-12 °C41 %1022 hPa16.1 kmSW (220°)9.3 km/hClear
12:35 PM1 °C-12 °C38 %1021.3 hPa16.1 kmSW (220°)14.8 km/hClear
12:55 PM2 °C-12 °C35 %1020.7 hPa16.1 kmWSW (250°)14.8 km/hClear
1:15 PM2 °C-12 °C35 %1020.7 hPa16.1 kmWest (270°)20.4 km/h29.6 km/hClear
1:35 PM3 °C-11 °C36 %1020.7 hPa16.1 kmWest (260°)24.1 km/h29.6 km/hClear
1:55 PM3 °C-11 °C36 %1020.7 hPa16.1 kmWest (270°)20.4 km/h27.8 km/hClear
2:15 PM4 °C-11 °C33 %1020.3 hPa16.1 kmWNW (300°)18.5 km/h27.8 km/hClear
2:35 PM3 °C-11 °C36 %1020.7 hPa16.1 kmNW (310°)24.1 km/hClear
2:55 PM3 °C-11 °C36 %1020.7 hPa16.1 kmNW (320°)20.4 km/h27.8 km/hClear
3:15 PM3 °C-11 °C36 %1021 hPa16.1 kmNW (310°)24.1 km/h37 km/hClear
3:35 PM2 °C-10 °C41 %1021.3 hPa16.1 kmNW (310°)20.4 km/hClear
3:55 PM2 °C-9 °C44 %1021.7 hPa16.1 kmNNW (340°)18.5 km/hClear
4:15 PM1 °C-9 °C48 %1022 hPa16.1 kmNNW (330°)16.7 km/hClear
4:35 PM1 °C-9 °C48 %1022 hPa16.1 kmNW (320°)16.7 km/hClear
4:55 PM0 °C-10 °C48 %1022.4 hPa16.1 kmNW (320°)20.4 km/hClear
5:15 PM-1 °C-10 °C51 %1022.7 hPa16.1 kmNW (320°)20.4 km/h33.3 km/hClear
5:35 PM-1 °C-9 °C55 %1023.4 hPa16.1 kmNW (320°)14.8 km/hClear
5:55 PM-2 °C-9 °C59 %1023.7 hPa16.1 kmNW (320°)20.4 km/h25.9 km/hClear
6:15 PM-2 °C-9 °C59 %1024.4 hPa16.1 kmNW (320°)14.8 km/hClear
6:35 PM-2 °C-9 °C59 %1024 hPa16.1 kmNW (310°)13 km/hClear
6:55 PM-2 °C-9 °C59 %1024.7 hPa16.1 kmNW (320°)16.7 km/h29.6 km/hClear
7:15 PM-3 °C-9 °C64 %1025.1 hPa16.1 kmNW (310°)24.1 km/h33.3 km/hClear
7:35 PM-3 °C-10 °C59 %1025.1 hPa16.1 kmNW (320°)20.4 km/h33.3 km/hClear
7:55 PM-3 °C-11 °C55 %1025.4 hPa16.1 kmNNW (330°)20.4 km/h33.3 km/hClear
8:15 PM-4 °C-12 °C54 %1025.7 hPa16.1 kmNW (320°)24.1 km/h40.7 km/hClear
8:35 PM-4 °C-13 °C50 %1026.4 hPa16.1 kmNNW (330°)29.6 km/h42.6 km/hClear
9:15 PM-6 °C-14 °C54 %1026.8 hPa16.1 kmNW (320°)24.1 km/h37 km/hClear
9:35 PM-6 °C-14 °C54 %1027.4 hPa16.1 kmNNW (340°)20.4 km/h31.5 km/hClear
9:55 PM-6 °C-15 °C50 %1027.8 hPa16.1 kmNorth (350°)16.7 km/h29.6 km/hClear
10:15 PM-7 °C-17 °C46 %1028.4 hPa16.1 kmNNW (340°)18.5 km/h40.7 km/hClear
10:35 PM-8 °C-17 °C49 %1029.1 hPa16.1 kmNorth (350°)25.9 km/h38.9 km/hClear
10:55 PM-9 °C-18 °C49 %1029.8 hPa16.1 kmNNW (340°)24.1 km/h38.9 km/hClear
11:15 PM-9 °C-17 °C53 %1029.8 hPa16.1 kmNNW (340°)18.5 km/h31.5 km/hClear
11:35 PM-9 °C-18 °C49 %1030.5 hPa16.1 kmNNW (340°)27.8 km/hClear
11:55 PM-10 °C-18 °C53 %1030.8 hPa16.1 kmNNW (340°)18.5 km/h31.5 km/hClear
Hourly data recorded from KEOK, located 0 kilometers away from Hamilton, Illinois







STORIES FROM OUR PARTNERS